| time (UTC) | temp C | wind direction | speed KPH | gust KPH | rain 1hr cm | rain 24hr cm | rain mn cm | humidity % | barometer mb |
| 20260508082908 | 6 | 200 | 0.0 | 0.0 | 0.00 | 0.08 | 0.08 | 74 | 1022.9 |
| 20260508082406 | 5 | 275 | 0.0 | 0.0 | 0.00 | 0.08 | 0.08 | 76 | 1022.7 |
| 20260508081904 | 5 | 297 | 1.6 | 4.8 | 0.00 | 0.08 | 0.08 | 77 | 1022.8 |
| 20260508081400 | 5 | 84 | 3.2 | 3.2 | 0.00 | 0.08 | 0.08 | 77 | 1022.6 |
| 20260508080857 | 4 | 278 | 0.0 | 3.2 | 0.18 | 0.08 | 0.08 | 79 | 1022.7 |
| 20260508080355 | 4 | 341 | 0.0 | 0.0 | 0.18 | 0.08 | 0.08 | 80 | 1022.7 |
| 20260508075851 | 3 | 126 | 3.2 | 4.8 | 0.00 | 0.05 | 0.05 | 81 | 1022.4 |
| 20260508075348 | 4 | 78 | 4.8 | 11.3 | 0.00 | 0.05 | 0.05 | 80 | 1022.5 |
| 20260508074846 | 4 | 127 | 3.2 | 9.7 | 0.00 | 0.05 | 0.05 | 79 | 1022.5 |
| 20260508074343 | 4 | 86 | 9.7 | 14.5 | 0.00 | 0.05 | 0.05 | 81 | 1022.6 |
| 20260508073840 | 3 | 217 | 4.8 | 11.3 | 0.00 | 0.05 | 0.05 | 82 | 1022.5 |
| 20260508073338 | 3 | 153 | 9.7 | 12.9 | 0.00 | 0.05 | 0.05 | 81 | 1022.5 |
| 20260508072834 | 4 | 27 | 1.6 | 12.9 | 0.00 | 0.05 | 0.05 | 79 | 1022.3 |
| 20260508072331 | 4 | 109 | 8.0 | 14.5 | 0.00 | 0.05 | 0.05 | 77 | 1022.4 |
| 20260508071828 | 5 | 106 | 3.2 | 14.5 | 0.00 | 0.05 | 0.05 | 75 | 1022.4 |
| 20260508071326 | 5 | 305 | 1.6 | 11.3 | 0.00 | 0.05 | 0.05 | 71 | 1021.9 |
| 20260508070824 | 5 | 219 | 8.0 | 12.9 | 0.00 | 0.05 | 0.05 | 69 | 1021.9 |
| 20260508070322 | 6 | 307 | 1.6 | 4.8 | 0.00 | 0.05 | 0.05 | 66 | 1021.9 |
| 20260508065819 | 6 | 249 | 1.6 | 4.8 | 0.00 | 0.05 | 0.05 | 67 | 1021.7 |
| 20260508065317 | 6 | 80 | 0.0 | 3.2 | 0.00 | 0.05 | 0.05 | 66 | 1021.8 |
| 20260508064815 | 5 | 208 | 0.0 | 3.2 | 0.00 | 0.05 | 0.05 | 69 | 1021.8 |
| 20260508064312 | 5 | 301 | 1.6 | 3.2 | 0.00 | 0.05 | 0.05 | 68 | 1021.6 |
| 20260508063809 | 5 | 245 | 3.2 | 3.2 | 0.00 | 0.05 | 0.05 | 72 | 1021.5 |
| 20260508063307 | 5 | 94 | 1.6 | 4.8 | 0.00 | 0.05 | 0.05 | 68 | 1021.6 |
| 20260508062804 | 5 | 130 | 3.2 | 4.8 | 0.00 | 0.05 | 0.05 | 67 | 1021.6 |
| 20260508062305 | 5 | 99 | 1.6 | 4.8 | 0.00 | 0.05 | 0.05 | 73 | 1021.4 |
| 20260508061758 | 4 | 139 | 3.2 | 3.2 | 0.00 | 0.05 | 0.05 | 77 | 1021.6 |
| 20260508061255 | 4 | 164 | 0.0 | 0.0 | 0.00 | 0.05 | 0.05 | 78 | 1021.4 |
| 20260508060752 | 4 | 78 | 6.4 | 9.7 | 0.00 | 0.05 | 0.05 | 74 | 1021.6 |
| 20260508060250 | 4 | 167 | 4.8 | 12.9 | 0.00 | 0.05 | 0.05 | 75 | 1021.4 |
| 20260508055745 | 4 | 132 | 3.2 | 4.8 | 0.00 | 0.05 | 0.05 | 76 | 1021.4 |
| 20260508055242 | 4 | 132 | 3.2 | 4.8 | 0.00 | 0.05 | 0.05 | 76 | 1021.3 |
| 20260508054739 | 4 | 155 | 3.2 | 6.4 | 0.00 | 0.05 | 0.05 | 77 | 1021.3 |
| 20260508054237 | 3 | 145 | 6.4 | 11.3 | 0.00 | 0.05 | 0.05 | 77 | 1021.4 |
| 20260508053734 | 3 | 128 | 3.2 | 12.9 | 0.00 | 0.05 | 0.05 | 78 | 1021.4 |
| 20260508053231 | 3 | 135 | 6.4 | 11.3 | 0.00 | 0.05 | 0.05 | 79 | 1021.4 |
| 20260508052728 | 3 | 124 | 11.3 | 14.5 | 0.00 | 0.05 | 0.05 | 80 | 1021.3 |
| 20260508052225 | 3 | 90 | 6.4 | 12.9 | 0.00 | 0.05 | 0.05 | 82 | 1021.2 |
| 20260508051721 | 3 | 107 | 4.8 | 9.7 | 0.00 | 0.05 | 0.05 | 84 | 1021.2 |
| 20260508051217 | 3 | 111 | 9.7 | 14.5 | 0.00 | 0.05 | 0.05 | 84 | 1021.2 |
| 20260508050713 | 2 | 138 | 3.2 | 12.9 | 0.00 | 0.05 | 0.05 | 87 | 1021.1 |
| 20260508050211 | 3 | 219 | 3.2 | 4.8 | 0.00 | 0.05 | 0.05 | 87 | 1021.0 |
| 20260508045706 | 2 | 69 | 0.0 | 0.0 | 0.00 | 0.05 | 0.05 | 87 | 1020.9 |
| 20260508045204 | 2 | 87 | 0.0 | 0.0 | 0.00 | 0.05 | 0.05 | 88 | 1021.0 |
| 20260508044701 | 3 | 80 | 0.0 | 0.0 | 0.00 | 0.05 | 0.05 | 89 | 1021.1 |
| 20260508044158 | 2 | 78 | 0.0 | 0.0 | 0.00 | 0.05 | 0.05 | 90 | 1021.0 |
| 20260508043654 | 2 | 43 | 0.0 | 0.0 | 0.00 | 0.05 | 0.05 | 91 | 1020.7 |
| 20260508043152 | 2 | 356 | 1.6 | 1.6 | 0.00 | 0.05 | 0.05 | 92 | 1020.7 |
| 20260508042648 | 2 | 25 | 1.6 | 3.2 | 0.00 | 0.05 | 0.05 | 92 | 1020.9 |
| 20260508042146 | 2 | 42 | 0.0 | 0.0 | 0.00 | 0.05 | 0.05 | 92 | 1020.8 |
| 20260508041642 | 1 | 62 | 0.0 | 0.0 | 0.00 | 0.05 | 0.05 | 92 | 1020.7 |
| 20260508041139 | 1 | 64 | 1.6 | 1.6 | 0.00 | 0.05 | 0.05 | 92 | 1020.8 |
| 20260508040635 | 1 | 29 | 0.0 | 0.0 | 0.00 | 0.05 | 0.05 | 92 | 1020.8 |
| 20260508040133 | 1 | 35 | 0.0 | 0.0 | 0.00 | 0.05 | 0.05 | 92 | 1020.8 |
| 20260508035630 | 1 | 324 | 0.0 | 0.0 | 0.13 | 0.05 | 0.05 | 92 | 1020.6 |
| 20260508035127 | 1 | 21 | 0.0 | 0.0 | 0.13 | 0.05 | 0.05 | 92 | 1020.6 |
| 20260508034624 | 1 | 31 | 0.0 | 1.6 | 0.00 | 0.03 | 0.03 | 92 | 1020.5 |
| 20260508034121 | 1 | 54 | 0.0 | 1.6 | 0.00 | 0.03 | 0.03 | 92 | 1020.5 |
| 20260508033618 | 1 | 116 | 0.0 | 1.6 | 0.00 | 0.03 | 0.03 | 92 | 1020.5 |
| 20260508033116 | 1 | 74 | 1.6 | 3.2 | 0.18 | 0.03 | 0.03 | 92 | 1020.6 |
| 20260508032612 | 1 | 50 | 3.2 | 3.2 | 0.18 | 0.03 | 0.03 | 92 | 1020.6 |
| 20260508032110 | 1 | 58 | 3.2 | 3.2 | 0.00 | 0.00 | 0.00 | 92 | 1020.6 |
| 20260508031607 | 1 | 76 | 3.2 | 3.2 | 0.00 | 0.00 | 0.00 | 92 | 1020.5 |
| 20260508031103 | 1 | 52 | 3.2 | 3.2 | 0.00 | 0.00 | 0.00 | 92 | 1020.5 |
| 20260508030559 | 1 | 76 | 1.6 | 3.2 | 0.00 | 0.00 | 0.00 | 91 | 1020.4 |
| 20260508030058 | 1 | 21 | 3.2 | 4.8 | 0.00 | 0.00 | 0.00 | 91 | 1020.2 |
| 20260508025553 | 1 | 339 | 3.2 | 6.4 | 0.00 | 0.00 | 0.00 | 91 | 1020.5 |
| 20260508025051 | 1 | 327 | 3.2 | 3.2 | 0.00 | 0.00 | 0.00 | 91 | 1020.6 |
| 20260508024546 | 1 | 348 | 1.6 | 3.2 | 0.00 | 0.00 | 0.00 | 90 | 1020.5 |
| 20260508024044 | 1 | 357 | 4.8 | 4.8 | 0.00 | 0.00 | 0.00 | 90 | 1020.3 |
| 20260508023540 | 1 | 350 | 3.2 | 4.8 | 0.00 | 0.00 | 0.00 | 89 | 1020.4 |
| 20260508023038 | 1 | 350 | 3.2 | 4.8 | 0.00 | 0.00 | 0.00 | 87 | 1020.3 |
| 20260508022533 | 1 | 67 | 3.2 | 4.8 | 0.00 | 0.00 | 0.00 | 86 | 1020.5 |
| 20260508022031 | 1 | 20 | 0.0 | 0.0 | 0.00 | 0.00 | 0.00 | 84 | 1020.6 |
| 20260508021526 | 1 | 136 | 0.0 | 3.2 | 0.00 | 0.00 | 0.00 | 82 | 1020.4 |
| 20260508021022 | 1 | 85 | 0.0 | 1.6 | 0.00 | 0.00 | 0.00 | 82 | 1020.2 |
| 20260508020520 | 1 | 346 | 0.0 | 1.6 | 0.00 | 0.00 | 0.00 | 82 | 1020.1 |
| 20260508020018 | 1 | 24 | 3.2 | 3.2 | 0.00 | 0.00 | 0.00 | 82 | 1020.0 |
| 20260508015515 | 1 | 359 | 0.0 | 1.6 | 0.00 | 0.00 | 0.00 | 82 | 1020.1 |
| 20260508015012 | 1 | 34 | 4.8 | 4.8 | 0.00 | 0.00 | 0.00 | 83 | 1019.9 |
| 20260508014508 | 0 | 9 | 0.0 | 0.0 | 0.00 | 0.00 | 0.00 | 84 | 1019.8 |
| 20260508014005 | 0 | 7 | 0.0 | 0.0 | 0.00 | 0.00 | 0.00 | 84 | 1019.9 |
| 20260508013501 | 0 | 10 | 1.6 | 3.2 | 0.00 | 0.00 | 0.00 | 84 | 1019.9 |
| 20260508012958 | 0 | 330 | 0.0 | 4.8 | 0.00 | 0.00 | 0.00 | 82 | 1019.9 |
| 20260508012455 | 0 | 345 | 4.8 | 6.4 | 0.00 | 0.00 | 0.00 | 83 | 1019.7 |
| 20260508011952 | 0 | 12 | 4.8 | 4.8 | 0.00 | 0.00 | 0.00 | 83 | 1019.8 |
| 20260508011450 | 0 | 19 | 1.6 | 3.2 | 0.00 | 0.00 | 0.00 | 83 | 1019.6 |
| 20260508010947 | 0 | 280 | 0.0 | 4.8 | 0.00 | 0.00 | 0.00 | 81 | 1019.7 |
| 20260508010444 | 0 | 37 | 3.2 | 6.4 | 0.00 | 0.00 | 0.00 | 81 | 1019.6 |
| 20260508005942 | 1 | 11 | 3.2 | 4.8 | 0.00 | 0.00 | 0.00 | 81 | 1019.5 |
| 20260508005438 | 1 | 39 | 4.8 | 4.8 | 0.00 | 0.00 | 0.00 | 81 | 1019.5 |
| 20260508004935 | 1 | 34 | 4.8 | 4.8 | 0.00 | 0.00 | 0.00 | 81 | 1019.3 |
| 20260508004431 | 1 | 3 | 4.8 | 6.4 | 0.00 | 0.00 | 0.00 | 83 | 1019.3 |
| 20260508003928 | 0 | 87 | 3.2 | 4.8 | 0.00 | 0.00 | 0.00 | 83 | 1019.5 |
| 20260508003424 | 0 | 43 | 1.6 | 3.2 | 0.00 | 0.00 | 0.00 | 82 | 1019.2 |
| 20260508002922 | 0 | 345 | 3.2 | 4.8 | 0.00 | 0.00 | 0.00 | 82 | 1019.4 |
| 20260508002418 | 0 | 0 | 3.2 | 3.2 | 0.00 | 0.00 | 0.00 | 83 | 1019.4 |
| 20260508001914 | 0 | 33 | 3.2 | 3.2 | 0.00 | 0.00 | 0.00 | 83 | 1019.2 |
| 20260508001411 | 0 | 131 | 0.0 | 0.0 | 0.00 | 0.00 | 0.00 | 82 | 1019.2 |
| 20260508000907 | 1 | 285 | 0.0 | 3.2 | 0.00 | 0.00 | 0.00 | 81 | 1019.0 |
| 20260508000405 | 1 | 7 | 1.6 | 4.8 | 0.00 | 0.00 | 0.00 | 80 | 1019.0 |
| 20260507235900 | 1 | 342 | 3.2 | 3.2 | 0.00 | 0.00 | 0.00 | 80 | 1018.9 |
| 20260507235358 | 1 | 341 | 1.6 | 3.2 | 0.00 | 0.00 | 0.00 | 80 | 1019.0 |
| 20260507234854 | 1 | 351 | 0.0 | 1.6 | 0.00 | 0.00 | 0.00 | 79 | 1019.0 |
| 20260507234351 | 1 | 341 | 1.6 | 3.2 | 0.00 | 0.00 | 0.00 | 78 | 1018.8 |
| 20260507233848 | 1 | 33 | 1.6 | 3.2 | 0.00 | 0.00 | 0.00 | 78 | 1018.9 |
| 20260507233345 | 1 | 0 | 1.6 | 3.2 | 0.00 | 0.00 | 0.00 | 79 | 1018.7 |
| 20260507232843 | 1 | 31 | 3.2 | 4.8 | 0.00 | 0.00 | 0.00 | 80 | 1018.9 |
| 20260507232339 | 1 | 345 | 0.0 | 0.0 | 0.00 | 0.00 | 0.00 | 80 | 1018.7 |
| 20260507231837 | 0 | 0 | 1.6 | 4.8 | 0.00 | 0.00 | 0.00 | 79 | 1018.8 |
| 20260507231333 | 1 | 331 | 4.8 | 4.8 | 0.00 | 0.00 | 0.00 | 77 | 1018.7 |
| 20260507230829 | 1 | 19 | 3.2 | 4.8 | 0.00 | 0.00 | 0.00 | 77 | 1018.6 |
| 20260507230327 | 1 | 357 | 3.2 | 6.4 | 0.00 | 0.00 | 0.00 | 77 | 1018.5 |
| 20260507225827 | 1 | 39 | 4.8 | 4.8 | 0.00 | 0.00 | 0.00 | 78 | 1018.9 |
| 20260507225323 | 1 | 19 | 3.2 | 4.8 | 0.00 | 0.00 | 0.00 | 80 | 1018.7 |
| 20260507224819 | 0 | 39 | 3.2 | 6.4 | 0.00 | 0.00 | 0.00 | 81 | 1018.5 |
| 20260507224316 | 1 | 11 | 1.6 | 1.6 | 0.00 | 0.00 | 0.00 | 77 | 1018.5 |
| 20260507223812 | 1 | 73 | 0.0 | 0.0 | 0.00 | 0.00 | 0.00 | 77 | 1018.4 |
| 20260507223308 | 1 | 346 | 1.6 | 1.6 | 0.00 | 0.00 | 0.00 | 78 | 1018.5 |
| 20260507222806 | 0 | 36 | 3.2 | 4.8 | 0.00 | 0.00 | 0.00 | 79 | 1018.4 |
| 20260507222305 | 0 | 346 | 4.8 | 6.4 | 0.00 | 0.00 | 0.00 | 78 | 1018.4 |
| 20260507221759 | 1 | 19 | 4.8 | 4.8 | 0.00 | 0.00 | 0.00 | 77 | 1018.4 |
| 20260507221255 | 1 | 54 | 3.2 | 4.8 | 0.00 | 0.00 | 0.00 | 76 | 1018.3 |
| 20260507220752 | 1 | 21 | 0.0 | 1.6 | 0.00 | 0.00 | 0.00 | 76 | 1018.3 |
| 20260507220250 | 1 | 71 | 3.2 | 4.8 | 0.00 | 0.00 | 0.00 | 76 | 1018.3 |
| 20260507215746 | 1 | 73 | 3.2 | 4.8 | 0.00 | 0.00 | 0.00 | 76 | 1018.0 |
| 20260507215244 | 1 | 54 | 0.0 | 4.8 | 0.00 | 0.00 | 0.00 | 76 | 1018.0 |
| 20260507214741 | 1 | 26 | 1.6 | 6.4 | 0.00 | 0.00 | 0.00 | 76 | 1018.0 |
| 20260507214238 | 1 | 32 | 3.2 | 4.8 | 0.00 | 0.00 | 0.00 | 76 | 1018.1 |
| 20260507213733 | 1 | 348 | 3.2 | 4.8 | 0.00 | 0.00 | 0.00 | 77 | 1018.2 |
| 20260507213230 | 1 | 59 | 4.8 | 4.8 | 0.00 | 0.00 | 0.00 | 77 | 1018.0 |
| 20260507212726 | 1 | 11 | 3.2 | 4.8 | 0.00 | 0.00 | 0.00 | 77 | 1017.9 |
| 20260507212223 | 1 | 23 | 3.2 | 4.8 | 0.00 | 0.00 | 0.00 | 76 | 1018.1 |
| 20260507211720 | 1 | 347 | 3.2 | 4.8 | 0.00 | 0.00 | 0.00 | 76 | 1018.0 |
| 20260507211216 | 1 | 19 | 1.6 | 4.8 | 0.00 | 0.00 | 0.00 | 76 | 1017.9 |
| 20260507210713 | 2 | 29 | 3.2 | 4.8 | 0.00 | 0.00 | 0.00 | 75 | 1017.8 |
| 20260507210210 | 2 | 19 | 3.2 | 6.4 | 0.00 | 0.00 | 0.00 | 75 | 1017.9 |
| 20260507205706 | 2 | 343 | 4.8 | 9.7 | 0.00 | 0.00 | 0.00 | 74 | 1017.7 |
| 20260507205203 | 2 | 350 | 3.2 | 4.8 | 0.00 | 0.00 | 0.00 | 73 | 1017.6 |
| 20260507204659 | 2 | 358 | 1.6 | 4.8 | 0.00 | 0.00 | 0.00 | 73 | 1017.8 |
| 20260507204157 | 3 | 44 | 0.0 | 0.0 | 0.00 | 0.00 | 0.00 | 70 | 1017.7 |
| 20260507203655 | 2 | 17 | 0.0 | 3.2 | 0.00 | 0.00 | 0.00 | 72 | 1017.7 |
| 20260507203152 | 3 | 30 | 3.2 | 4.8 | 0.00 | 0.00 | 0.00 | 71 | 1017.7 |
| 20260507202647 | 3 | 78 | 1.6 | 3.2 | 0.00 | 0.00 | 0.00 | 70 | 1017.7 |
| 20260507202144 | 2 | 81 | 1.6 | 6.4 | 0.00 | 0.00 | 0.00 | 71 | 1017.5 |
| 20260507201639 | 3 | 50 | 3.2 | 6.4 | 0.00 | 0.00 | 0.00 | 71 | 1017.4 |
| 20260507201136 | 2 | 47 | 1.6 | 6.4 | 0.00 | 0.00 | 0.00 | 73 | 1017.5 |
| 20260507200632 | 3 | 64 | 3.2 | 4.8 | 0.00 | 0.00 | 0.00 | 73 | 1017.5 |
| 20260507200128 | 3 | 78 | 4.8 | 6.4 | 0.00 | 0.00 | 0.00 | 74 | 1017.3 |
| 20260507195625 | 2 | 60 | 0.0 | 0.0 | 0.00 | 0.00 | 0.00 | 75 | 1017.4 |
| 20260507195123 | 3 | 15 | 0.0 | 0.0 | 0.00 | 0.00 | 0.00 | 74 | 1017.2 |
| 20260507194619 | 3 | 352 | 0.0 | 0.0 | 0.00 | 0.00 | 0.00 | 74 | 1017.0 |
| 20260507194115 | 3 | 57 | 1.6 | 4.8 | 0.00 | 0.00 | 0.00 | 75 | 1017.1 |
| 20260507193612 | 3 | 31 | 3.2 | 4.8 | 0.00 | 0.00 | 0.00 | 76 | 1017.2 |
| 20260507193109 | 3 | 42 | 3.2 | 4.8 | 0.00 | 0.00 | 0.00 | 76 | 1017.0 |
| 20260507192605 | 3 | 43 | 3.2 | 4.8 | 0.00 | 0.00 | 0.00 | 76 | 1016.8 |
| 20260507192102 | 3 | 36 | 3.2 | 3.2 | 0.00 | 0.00 | 0.00 | 76 | 1017.1 |
| 20260507191557 | 4 | 16 | 1.6 | 1.6 | 0.00 | 0.00 | 0.00 | 75 | 1017.0 |
| 20260507191055 | 4 | 356 | 3.2 | 3.2 | 0.00 | 0.00 | 0.00 | 75 | 1016.9 |
| 20260507190552 | 4 | 340 | 3.2 | 4.8 | 0.00 | 0.00 | 0.00 | 75 | 1016.8 |
| 20260507190051 | 4 | 352 | 3.2 | 3.2 | 0.00 | 0.00 | 0.00 | 75 | 1016.9 |
| 20260507185549 | 4 | 351 | 4.8 | 6.4 | 0.00 | 0.00 | 0.00 | 75 | 1016.9 |
| 20260507185045 | 4 | 344 | 4.8 | 6.4 | 0.00 | 0.00 | 0.00 | 74 | 1016.8 |
| 20260507184543 | 5 | 338 | 3.2 | 4.8 | 0.00 | 0.00 | 0.00 | 73 | 1016.8 |
| 20260507184041 | 5 | 332 | 0.0 | 1.6 | 0.00 | 0.00 | 0.00 | 71 | 1016.4 |
| 20260507183536 | 5 | 324 | 1.6 | 3.2 | 0.00 | 0.00 | 0.00 | 71 | 1016.6 |
| 20260507183034 | 5 | 332 | 1.6 | 4.8 | 0.00 | 0.00 | 0.00 | 74 | 1016.7 |
| 20260507182530 | 5 | 293 | 3.2 | 6.4 | 0.00 | 0.00 | 0.00 | 74 | 1016.6 |
| 20260507182026 | 5 | 315 | 6.4 | 6.4 | 0.00 | 0.00 | 0.00 | 73 | 1016.6 |
| 20260507181523 | 5 | 338 | 4.8 | 6.4 | 0.00 | 0.00 | 0.00 | 72 | 1016.6 |
| 20260507181020 | 5 | 344 | 3.2 | 6.4 | 0.00 | 0.00 | 0.00 | 72 | 1016.5 |
| 20260507180516 | 6 | 20 | 3.2 | 9.7 | 0.00 | 0.00 | 0.00 | 70 | 1016.4 |
| 20260507180013 | 6 | 297 | 4.8 | 4.8 | 0.00 | 0.00 | 0.00 | 70 | 1016.3 |
| 20260507175509 | 6 | 312 | 8.0 | 11.3 | 0.00 | 0.00 | 0.00 | 70 | 1016.6 |
| 20260507175007 | 6 | 294 | 8.0 | 14.5 | 0.00 | 0.00 | 0.00 | 72 | 1016.2 |
| 20260507174504 | 6 | 276 | 6.4 | 9.7 | 0.00 | 0.00 | 0.00 | 73 | 1016.1 |
| 20260507174001 | 6 | 250 | 4.8 | 6.4 | 0.00 | 0.00 | 0.00 | 72 | 1016.3 |
| 20260507173458 | 6 | 291 | 4.8 | 6.4 | 0.00 | 0.00 | 0.00 | 70 | 1016.1 |
| 20260507172955 | 6 | 243 | 4.8 | 6.4 | 0.00 | 0.00 | 0.00 | 70 | 1016.3 |
| 20260507172451 | 6 | 281 | 3.2 | 6.4 | 0.00 | 0.00 | 0.00 | 70 | 1016.3 |
| 20260507171948 | 6 | 306 | 6.4 | 9.7 | 0.00 | 0.00 | 0.00 | 71 | 1016.2 |
| 20260507171443 | 6 | 293 | 6.4 | 11.3 | 0.00 | 0.00 | 0.00 | 71 | 1016.0 |
| 20260507170941 | 6 | 292 | 8.0 | 12.9 | 0.00 | 0.00 | 0.00 | 69 | 1015.9 |
| 20260507170438 | 6 | 304 | 8.0 | 11.3 | 0.00 | 0.00 | 0.00 | 68 | 1016.1 |
| 20260507165934 | 6 | 291 | 9.7 | 16.1 | 0.00 | 0.00 | 0.00 | 66 | 1015.9 |
| 20260507165430 | 7 | 250 | 3.2 | 4.8 | 0.00 | 0.00 | 0.00 | 61 | 1015.9 |
| 20260507164926 | 7 | 239 | 3.2 | 4.8 | 0.00 | 0.00 | 0.00 | 57 | 1015.9 |
| 20260507164423 | 7 | 231 | 3.2 | 4.8 | 0.00 | 0.00 | 0.00 | 56 | 1015.9 |
| 20260507163920 | 8 | 210 | 3.2 | 4.8 | 0.00 | 0.00 | 0.00 | 56 | 1015.8 |
| 20260507163418 | 7 | 244 | 0.0 | 3.2 | 0.00 | 0.00 | 0.00 | 56 | 1015.9 |
| 20260507162914 | 7 | 240 | 1.6 | 3.2 | 0.00 | 0.00 | 0.00 | 61 | 1015.6 |
| 20260507162409 | 7 | 270 | 3.2 | 3.2 | 0.00 | 0.00 | 0.00 | 58 | 1015.8 |
| 20260507161907 | 7 | 217 | 3.2 | 4.8 | 0.00 | 0.00 | 0.00 | 53 | 1015.8 |
| 20260507161403 | 8 | 186 | 3.2 | 6.4 | 0.00 | 0.00 | 0.00 | 52 | 1015.7 |
| 20260507160900 | 7 | 219 | 1.6 | 4.8 | 0.00 | 0.00 | 0.00 | 55 | 1015.8 |
| 20260507160355 | 7 | 275 | 1.6 | 3.2 | 0.00 | 0.00 | 0.00 | 56 | 1015.8 |
| 20260507155852 | 7 | 244 | 3.2 | 4.8 | 0.00 | 0.00 | 0.00 | 58 | 1015.6 |
| 20260507155348 | 7 | 260 | 0.0 | 0.0 | 0.00 | 0.00 | 0.00 | 58 | 1015.5 |
| 20260507154845 | 7 | 275 | 3.2 | 4.8 | 0.00 | 0.00 | 0.00 | 58 | 1015.5 |
| 20260507154342 | 6 | 307 | 3.2 | 4.8 | 0.00 | 0.00 | 0.00 | 61 | 1015.6 |
| 20260507153839 | 6 | 290 | 3.2 | 6.4 | 0.00 | 0.00 | 0.00 | 61 | 1015.5 |
| 20260507153335 | 6 | 299 | 3.2 | 6.4 | 0.00 | 0.00 | 0.00 | 62 | 1015.6 |
| 20260507152832 | 6 | 286 | 1.6 | 3.2 | 0.00 | 0.00 | 0.00 | 61 | 1015.7 |
| 20260507152328 | 6 | 206 | 3.2 | 9.7 | 0.00 | 0.00 | 0.00 | 60 | 1015.4 |
| 20260507151825 | 6 | 208 | 4.8 | 6.4 | 0.00 | 0.00 | 0.00 | 62 | 1015.8 |
| 20260507151321 | 6 | 238 | 0.0 | 0.0 | 0.00 | 0.00 | 0.00 | 63 | 1015.5 |
| 20260507150818 | 6 | 310 | 0.0 | 0.0 | 0.00 | 0.00 | 0.00 | 63 | 1015.5 |
| 20260507150314 | 6 | 30 | 0.0 | 0.0 | 0.00 | 0.00 | 0.00 | 64 | 1015.6 |
| 20260507145811 | 6 | 103 | 0.0 | 3.2 | 0.00 | 0.00 | 0.00 | 67 | 1015.5 |
| 20260507145307 | 5 | 178 | 3.2 | 3.2 | 0.00 | 0.00 | 0.00 | 70 | 1015.6 |
| 20260507144804 | 5 | 306 | 3.2 | 11.3 | 0.00 | 0.00 | 0.00 | 68 | 1015.7 |
| 20260507144302 | 5 | 269 | 4.8 | 9.7 | 0.00 | 0.00 | 0.00 | 67 | 1015.5 |
| 20260507143758 | 6 | 265 | 4.8 | 6.4 | 0.00 | 0.00 | 0.00 | 62 | 1015.5 |
| 20260507143255 | 6 | 257 | 4.8 | 9.7 | 0.00 | 0.00 | 0.00 | 64 | 1015.3 |
| 20260507142751 | 6 | 309 | 0.0 | 3.2 | 0.00 | 0.00 | 0.00 | 63 | 1015.4 |
| 20260507142248 | 6 | 105 | 0.0 | 1.6 | 0.00 | 0.00 | 0.00 | 64 | 1015.5 |
| 20260507141744 | 6 | 284 | 3.2 | 4.8 | 0.00 | 0.00 | 0.00 | 62 | 1015.6 |
| 20260507141242 | 6 | 241 | 1.6 | 1.6 | 0.00 | 0.00 | 0.00 | 64 | 1015.5 |
| 20260507140737 | 6 | 205 | 3.2 | 3.2 | 0.00 | 0.00 | 0.00 | 64 | 1015.4 |
| 20260507140235 | 6 | 229 | 3.2 | 6.4 | 0.00 | 0.00 | 0.00 | 63 | 1015.3 |
| 20260507135732 | 7 | 219 | 6.4 | 6.4 | 0.00 | 0.00 | 0.00 | 60 | 1015.3 |
| 20260507135230 | 6 | 202 | 0.0 | 4.8 | 0.00 | 0.00 | 0.00 | 60 | 1015.2 |
| 20260507134725 | 7 | 263 | 3.2 | 4.8 | 0.00 | 0.00 | 0.00 | 61 | 1015.2 |
| 20260507134222 | 7 | 309 | 1.6 | 4.8 | 0.00 | 0.00 | 0.00 | 59 | 1015.2 |
| 20260507133718 | 7 | 134 | 3.2 | 4.8 | 0.00 | 0.00 | 0.00 | 61 | 1015.3 |
| 20260507133215 | 6 | 52 | 3.2 | 9.7 | 0.00 | 0.00 | 0.00 | 63 | 1015.1 |
| 20260507132713 | 6 | 128 | 8.0 | 11.3 | 0.00 | 0.00 | 0.00 | 64 | 1015.3 |
| 20260507132209 | 6 | 135 | 6.4 | 6.4 | 0.00 | 0.00 | 0.00 | 63 | 1014.8 |
| 20260507131706 | 6 | 121 | 3.2 | 6.4 | 0.00 | 0.00 | 0.00 | 64 | 1015.2 |
| 20260507131203 | 5 | 349 | 6.4 | 12.9 | 0.00 | 0.00 | 0.00 | 66 | 1015.3 |
| 20260507130700 | 5 | 88 | 4.8 | 11.3 | 0.00 | 0.00 | 0.00 | 66 | 1015.0 |
| 20260507130157 | 5 | 133 | 14.5 | 17.7 | 0.00 | 0.00 | 0.00 | 67 | 1015.2 |
| 20260507125656 | 5 | 119 | 12.9 | 16.1 | 0.00 | 0.00 | 0.00 | 65 | 1015.2 |
| 20260507125153 | 6 | 43 | 6.4 | 12.9 | 0.00 | 0.00 | 0.00 | 64 | 1015.1 |
| 20260507124649 | 6 | 354 | 8.0 | 12.9 | 0.00 | 0.00 | 0.00 | 63 | 1015.1 |
| 20260507124147 | 5 | 178 | 6.4 | 20.9 | 0.00 | 0.00 | 0.00 | 65 | 1014.8 |
| 20260507123645 | 5 | 207 | 6.4 | 16.1 | 0.00 | 0.00 | 0.00 | 64 | 1014.9 |
| 20260507123142 | 6 | 73 | 3.2 | 6.4 | 0.00 | 0.00 | 0.00 | 63 | 1014.9 |
| 20260507122637 | 6 | 328 | 4.8 | 6.4 | 0.00 | 0.00 | 0.00 | 66 | 1014.6 |
| 20260507122133 | 6 | 144 | 6.4 | 12.9 | 0.00 | 0.00 | 0.00 | 65 | 1014.6 |
| 20260507121629 | 6 | 211 | 9.7 | 14.5 | 0.00 | 0.00 | 0.00 | 65 | 1014.8 |
| 20260507121125 | 6 | 210 | 3.2 | 11.3 | 0.00 | 0.00 | 0.00 | 67 | 1014.8 |
| 20260507120622 | 6 | 257 | 4.8 | 9.7 | 0.00 | 0.00 | 0.00 | 66 | 1014.4 |
| 20260507120118 | 6 | 277 | 6.4 | 12.9 | 0.00 | 0.00 | 0.00 | 67 | 1014.4 |
| 20260507115615 | 6 | 285 | 8.0 | 11.3 | 0.00 | 0.00 | 0.00 | 65 | 1014.4 |
| 20260507115111 | 6 | 292 | 4.8 | 6.4 | 0.00 | 0.00 | 0.00 | 66 | 1014.4 |
| 20260507114607 | 6 | 292 | 4.8 | 9.7 | 0.00 | 0.00 | 0.00 | 65 | 1014.4 |
| 20260507114104 | 6 | 239 | 4.8 | 6.4 | 0.00 | 0.00 | 0.00 | 65 | 1014.5 |
| 20260507113601 | 6 | 268 | 11.3 | 16.1 | 0.00 | 0.00 | 0.00 | 65 | 1014.1 |
| 20260507113058 | 6 | 7 | 3.2 | 16.1 | 0.00 | 0.00 | 0.00 | 60 | 1014.3 |
| 20260507112556 | 6 | 179 | 9.7 | 16.1 | 0.00 | 0.00 | 0.00 | 58 | 1014.3 |
| 20260507112053 | 6 | 61 | 6.4 | 14.5 | 0.00 | 0.00 | 0.00 | 58 | 1014.2 |
| 20260507111549 | 6 | 240 | 3.2 | 14.5 | 0.00 | 0.00 | 0.00 | 59 | 1013.9 |
| 20260507111046 | 6 | 249 | 3.2 | 11.3 | 0.00 | 0.00 | 0.00 | 65 | 1013.8 |
| 20260507110543 | 6 | 195 | 3.2 | 6.4 | 0.00 | 0.00 | 0.00 | 63 | 1013.8 |
| 20260507110039 | 6 | 278 | 0.0 | 9.7 | 0.00 | 0.00 | 0.00 | 67 | 1014.0 |
| 20260507105536 | 6 | 261 | 4.8 | 4.8 | 0.00 | 0.00 | 0.00 | 67 | 1013.8 |
| 20260507105032 | 6 | 289 | 3.2 | 4.8 | 0.00 | 0.00 | 0.00 | 71 | 1013.8 |
| 20260507104530 | 6 | 298 | 4.8 | 6.4 | 0.00 | 0.00 | 0.00 | 73 | 1013.8 |
| 20260507104026 | 5 | 269 | 4.8 | 6.4 | 0.00 | 0.00 | 0.00 | 72 | 1013.7 |
| 20260507103522 | 5 | 309 | 6.4 | 9.7 | 0.00 | 0.00 | 0.00 | 72 | 1013.7 |
| 20260507103019 | 5 | 300 | 9.7 | 14.5 | 0.00 | 0.00 | 0.00 | 70 | 1013.6 |
| 20260507102516 | 5 | 291 | 9.7 | 16.1 | 0.00 | 0.00 | 0.00 | 69 | 1013.5 |
| 20260507102012 | 5 | 274 | 3.2 | 9.7 | 0.00 | 0.00 | 0.00 | 72 | 1013.7 |
| 20260507101507 | 6 | 283 | 4.8 | 9.7 | 0.00 | 0.00 | 0.00 | 70 | 1013.7 |
| 20260507101004 | 6 | 257 | 4.8 | 9.7 | 0.00 | 0.00 | 0.00 | 71 | 1013.6 |
| 20260507100501 | 6 | 264 | 3.2 | 14.5 | 0.00 | 0.00 | 0.00 | 71 | 1013.6 |
| 20260507095959 | 6 | 262 | 3.2 | 4.8 | 0.00 | 0.00 | 0.00 | 72 | 1013.6 |
| 20260507095457 | 6 | 263 | 3.2 | 4.8 | 0.00 | 0.00 | 0.00 | 73 | 1013.6 |
| 20260507094953 | 5 | 284 | 6.4 | 11.3 | 0.00 | 0.00 | 0.00 | 75 | 1013.3 |
| 20260507094449 | 5 | 292 | 6.4 | 9.7 | 0.00 | 0.00 | 0.00 | 74 | 1013.3 |
| 20260507093947 | 5 | 308 | 3.2 | 11.3 | 0.00 | 0.00 | 0.00 | 73 | 1013.3 |
| 20260507093444 | 6 | 247 | 3.2 | 12.9 | 0.00 | 0.00 | 0.00 | 70 | 1013.4 |
| 20260507092943 | 5 | 233 | 3.2 | 4.8 | 0.00 | 0.00 | 0.00 | 66 | 1013.3 |
| 20260507092438 | 5 | 249 | 4.8 | 11.3 | 0.00 | 0.00 | 0.00 | 68 | 1013.2 |
| 20260507091935 | 6 | 192 | 6.4 | 9.7 | 0.00 | 0.00 | 0.00 | 59 | 1013.2 |
| 20260507091432 | 6 | 281 | 8.0 | 16.1 | 0.00 | 0.00 | 0.00 | 58 | 1013.2 |
| 20260507090928 | 6 | 199 | 6.4 | 11.3 | 0.00 | 0.00 | 0.00 | 58 | 1013.0 |
| 20260507090424 | 6 | 80 | 4.8 | 20.9 | 0.00 | 0.00 | 0.00 | 57 | 1013.2 |
| 20260507085921 | 6 | 191 | 4.8 | 9.7 | 0.00 | 0.00 | 0.00 | 55 | 1012.9 |
| 20260507085418 | 6 | 217 | 1.6 | 3.2 | 0.00 | 0.00 | 0.00 | 58 | 1013.0 |
| 20260507084915 | 6 | 144 | 0.0 | 3.2 | 0.00 | 0.00 | 0.00 | 55 | 1012.9 |
| 20260507084412 | 6 | 239 | 8.0 | 11.3 | 0.00 | 0.00 | 0.00 | 55 | 1012.9 |
| 20260507083909 | 6 | 269 | 6.4 | 9.7 | 0.00 | 0.00 | 0.00 | 59 | 1012.8 |
| 20260507083405 | 6 | 303 | 3.2 | 6.4 | 0.00 | 0.00 | 0.00 | 58 | 1012.9 |